Jackson, MI

4:34 AM EDT on September 20, 2019 (GMT -0400)
Jackson County-Reynolds

Weather History for KJXN - August, 2019

Change the Weather History Date:

Monday, August 19, 2019

  Actual Average Record
Temperature  
Mean Temperature 74 °F 70 °F  
Max Temperature 84 °F 80 °F 95 °F (1955)
Min Temperature 64 °F 59 °F 40 °F (1977)
Degree Days  
Heating Degree Days 0 1  
Month to date heating degree days 0 15  
Since 1 June heating degree days 58 81  
Since 1 July heating degree days 0 26  
Cooling Degree Days 9 5  
Month to date cooling degree days 120 110  
Year to date cooling degree days 525 475  
Since 1 June cooling degree days 515 438  
Growing Degree Days 24 (Base 50)    
Moisture  
Dew Point 65 °F    
Average Humidity 83    
Maximum Humidity 93    
Minimum Humidity 53    
Precipitation  
Precipitation 0.00 in 0.11 in 1.40 in (2007)
Month to date precipitation 0.22 2.17  
Year to date precipitation 20.41 19.62  
Sea Level Pressure  
Sea Level Pressure 30.00 in    
Wind  
Wind Speed 4 mph ()    
Max Wind Speed 10 mph    
Max Gust Speed 14 mph    
Visibility 7.0 miles    
Events      
T = Trace of Precipitation, MM = Missing Value Source: Averaged Metar Reports

Daily Weather History Graph

Daily Weather History Graph

Search for Another Location

Airport or City:

Astronomy

Aug. 19, 2019 Rise Set
Actual Time 6:49 AM EDT 8:33 PM EDT
Civil Twilight 6:19 AM EDT 9:02 PM EDT
Nautical Twilight 5:42 AM EDT 9:38 PM EDT
Astronomical Twilight 5:03 AM EDT 10:17 PM EDT
Moon 10:49 PM EDT (8/19) 10:33 AM EDT (8/19)
Length of Visible Light 14h 43m
Length of Day
13h 43m
Waning Gibbous, 85% of the Moon is Illuminated
Aug 19
Waning Gibbous
Aug 23
Last Quarter
Aug 30
New
Sep 5
First Quarter
Sep 14
Full

Hourly Weather History & Observations

Time (EDT) Temp. Heat Index Dew Point Humidity Pressure Visibility Wind Dir Wind Speed Gust Speed Precip Events Conditions
12:56 AM 66.9 °F - 64.9 °F 93% 29.94 in 10.0 mi SSW 8.1 mph - N/A   Clear
1:56 AM 66.9 °F - 64.0 °F 90% 29.95 in 10.0 mi SSW 5.8 mph - N/A   Scattered Clouds
2:12 AM 66.9 °F - 64.9 °F 93% 29.96 in 10.0 mi South 6.9 mph - N/A   Overcast
2:21 AM 68.0 °F - 64.9 °F 90% 29.96 in 10.0 mi SSW 6.9 mph - N/A   Overcast
2:29 AM 68.0 °F - 64.9 °F 90% 29.96 in 10.0 mi SSW 6.9 mph - N/A   Overcast
2:56 AM 68.0 °F - 66.0 °F 93% 29.95 in 8.0 mi SSW 5.8 mph - N/A   Overcast
3:14 AM 66.9 °F - 64.9 °F 93% 29.96 in 7.0 mi SSW 4.6 mph - N/A   Mostly Cloudy
3:56 AM 66.0 °F - 64.0 °F 93% 29.94 in 5.0 mi Calm Calm - N/A   Clear
4:16 AM 66.9 °F - 64.9 °F 93% 29.95 in 3.0 mi Calm Calm - N/A   Partly Cloudy
4:23 AM 66.0 °F - 64.0 °F 93% 29.95 in 2.5 mi Calm Calm - N/A   Scattered Clouds
4:27 AM 66.0 °F - 64.0 °F 93% 29.96 in 1.8 mi Calm Calm - N/A   Mostly Cloudy
4:36 AM 66.0 °F - 64.0 °F 93% 29.96 in 3.0 mi Calm Calm - N/A   Mostly Cloudy
4:44 AM 64.9 °F - 63.0 °F 93% 29.96 in 1.5 mi Calm Calm - N/A   Overcast
4:56 AM 66.0 °F - 64.0 °F 93% 29.95 in 1.2 mi WSW 3.5 mph - N/A   Overcast
5:01 AM 66.0 °F - 64.0 °F 93% 29.97 in 3.0 mi WSW 5.8 mph - N/A   Overcast
5:14 AM 66.9 °F - 64.9 °F 93% 29.97 in 1.8 mi SW 4.6 mph - N/A   Overcast
5:40 AM 66.9 °F - 64.9 °F 93% 29.97 in 2.0 mi WSW 4.6 mph - N/A   Overcast
5:56 AM 66.9 °F - 64.9 °F 93% 29.96 in 2.5 mi WSW 4.6 mph - N/A   Overcast
6:40 AM 66.9 °F - 64.9 °F 93% 30.00 in 3.0 mi SW 4.6 mph - N/A   Overcast
6:56 AM 66.9 °F - 64.9 °F 93% 29.99 in 3.0 mi WSW 4.6 mph - N/A   Overcast
7:06 AM 66.9 °F - 64.9 °F 93% 30.01 in 2.5 mi WSW 3.5 mph - N/A   Overcast
7:36 AM 66.9 °F - 64.9 °F 93% 30.02 in 3.0 mi WSW 4.6 mph - N/A   Overcast
7:56 AM 66.9 °F - 64.9 °F 93% 30.01 in 3.0 mi WSW 3.5 mph - N/A   Overcast
8:56 AM 68.0 °F - 66.0 °F 93% 30.03 in 5.0 mi WSW 3.5 mph - N/A   Overcast
9:39 AM 70.0 °F - 66.0 °F 87% 30.05 in 8.0 mi WSW 5.8 mph - N/A   Overcast
9:56 AM 71.1 °F - 66.9 °F 87% 30.04 in 10.0 mi WSW 5.8 mph - N/A   Mostly Cloudy
10:29 AM 73.0 °F - 66.0 °F 79% 30.06 in 10.0 mi West 3.5 mph - N/A   Mostly Cloudy
10:44 AM 73.0 °F - 66.9 °F 81% 30.06 in 10.0 mi SW 3.5 mph - N/A   Scattered Clouds
10:56 AM 73.9 °F - 66.0 °F 76% 30.05 in 10.0 mi Calm Calm - N/A   Partly Cloudy
11:33 AM 75.9 °F - 66.0 °F 71% 30.07 in 10.0 mi SW 4.6 mph - N/A   Mostly Cloudy
11:56 AM 77.0 °F - 63.0 °F 62% 30.05 in 10.0 mi NNE 4.6 mph - N/A   Mostly Cloudy
12:56 PM 79.0 °F - 63.0 °F 58% 30.05 in 10.0 mi SSW 4.6 mph - N/A   Mostly Cloudy
1:56 PM 81.0 °F 82.5 °F 64.0 °F 56% 30.05 in 10.0 mi WSW 5.8 mph - N/A   Mostly Cloudy
2:56 PM 82.0 °F 83.8 °F 64.9 °F 56% 30.05 in 10.0 mi SSW 4.6 mph - N/A   Overcast
3:56 PM 82.9 °F 84.4 °F 64.0 °F 53% 30.04 in 10.0 mi SSW 4.6 mph - N/A   Mostly Cloudy
4:56 PM 81.0 °F 82.7 °F 64.9 °F 58% 30.03 in 10.0 mi South 6.9 mph - N/A   Scattered Clouds
5:56 PM 80.1 °F 81.9 °F 64.9 °F 60% 30.03 in 10.0 mi South 5.8 mph - N/A   Partly Cloudy
6:56 PM 82.0 °F 84.5 °F 66.9 °F 60% 30.01 in 10.0 mi South 6.9 mph - N/A   Partly Cloudy
7:56 PM 79.0 °F - 66.9 °F 66% 30.01 in 10.0 mi South 4.6 mph - N/A   Partly Cloudy
8:56 PM 75.0 °F - 66.9 °F 76% 30.02 in 10.0 mi Calm Calm - N/A   Clear
9:56 PM 73.0 °F - 68.0 °F 84% 30.04 in 10.0 mi Calm Calm - N/A   Scattered Clouds
10:56 PM 71.1 °F - 66.9 °F 87% 30.05 in 10.0 mi Calm Calm - N/A   Partly Cloudy
11:56 PM 71.1 °F - 66.9 °F 87% 30.05 in 10.0 mi Calm Calm - N/A   Clear